Regional Weather Roundup
Issued by NWS Charleston, SC

Current Version | Previous Version | Graphics & Text | Print | Product List | Glossary On
Versions: 1 2 3 4 5 6 7 8 9 10 11 12 13 14 15 16 17 18 19 20 21 22 23 24 25 26 27 28 29 30 31 32 33 34 35 36 37 38 39 40 41 42 43 44 45 46 47 48 49 50
000 ASUS42 KCHS 270012 RWRCHS Regional Weather Roundup National Weather Service Charleston SC 800 PM EDT SAT MAY 26 2018 NOTE: "fair" indicates few or no clouds below 12,000 feet with no significant weather and/or obstructions to visibility. Not all stations are quality controlled. Use data with caution, especially dewpoint observations. SCZ027-030-031-034>040-042>050-270100- ...Southeast South Carolina... CITY SKY/WX TMP DP RH WIND PRES REMARKS N Charleston MOCLDY 79 69 71 S12 29.95R 6HR MIN TEMP: 78; 6HR MAX TEMP: 87; Waterfront Prk N/A 79 73 82 S9 29.79R Mount Pleasant FAIR 79 72 78 S8 29.96R Johns Island FAIR 79 73 83 S13 29.96R Pinopolis N/A 79 70 73 VRB3 29.87R Moncks Corner FAIR 77 66 69 S6 29.95R Summerville FAIR 77 68 73 S3 29.95R Beaufort MCAS FAIR 79 73 82 S9 29.94R 6HR MIN TEMP: 79; 6HR MAX TEMP: 84; Beaufort Arpt FAIR 77 70 78 S9G17 29.94S Hilton Head Is FAIR 79 72 78 S8 29.96R Walterboro FAIR 77 68 73 S8 29.95R Allendale FAIR 81 70 69 S10 29.92R ...Southern Midlands and Pee Dee... CITY SKY/WX TMP DP RH WIND PRES REMARKS Georgetown FAIR 77 75 94 S8 29.97R Kingstree FAIR 79 72 78 S6 29.94R Orangeburg FAIR 79 70 74 S9 29.93R 6HR MIN TEMP: 79; 6HR MAX TEMP: 87; Barnwell FAIR 81 72 74 S8 29.92R Aiken MOCLDY 75 70 83 W6 29.96R THUNDER Manning FAIR 75 64 69 S8 29.94R Columbia MOCLDY 81 74 79 S3 29.91R 6HR MIN TEMP: 78; 6HR MAX TEMP: 88; 6HR PCP: 0.09; Sumter FAIR 80 70 70 S9 29.91R 6HR MIN TEMP: 80; 6HR MAX TEMP: 88; Florence FAIR 81 70 69 S9 29.93R 6HR MIN TEMP: 81; 6HR MAX TEMP: 90; Myrtle Beach FAIR 77 72 84 S15 29.97R N Myrtle Beach FAIR 78 71 79 SW13 29.95R 6HR MIN TEMP: 78; 6HR MAX TEMP: 82; $$ GAZ063-065-086>088-099>101-113>116-118-119-134>141-150-270100- ...Southeast Georgia... CITY SKY/WX TMP DP RH WIND PRES REMARKS Savannah Arpt MOCLDY 79 69 71 S13 29.94R 6HR MIN TEMP: 78; 6HR MAX TEMP: 85; Hunter AAF FAIR 78 69 73 S12 29.92R 6HR MIN TEMP: 78; 6HR MAX TEMP: 84; Fort Stewart FAIR 77 67 72 SE6 29.92R 6HR MIN TEMP: 74; 6HR MAX TEMP: 85; 6HR PCP: 0.62; Statesboro FAIR 79 71 75 S7 29.92R Sylvania FAIR 81 72 75 S7 29.93R Claxton FAIR 80 72 75 SE5 29.93R ...CSRA, Central and far Southeast Georgia... CITY SKY/WX TMP DP RH WIND PRES REMARKS Thomson FAIR 78 72 80 CALM 29.96R Augusta-Bush CLOUDY 74 70 87 CALM 29.90S 6HR MIN TEMP: 72; 6HR MAX TEMP: 86; 6HR PCP: 0.58; Augusta-Daniel MOCLDY 76 70 82 SE5 29.92R Swainsboro FAIR 81 72 74 S3 29.93R Vidalia FAIR 81 68 65 S8 29.92R Eastman MOCLDY 76 67 73 CALM 29.93S Hazlehurst N/A 82 68 63 S3 29.91R Alma FAIR 80 70 71 SE5 29.92R 6HR MIN TEMP: 80; 6HR MAX TEMP: 88; Waycross FAIR 80 69 70 SE7 29.92R Jesup FAIR 80 67 65 SE6 29.93S Baxley FAIR 77 72 83 SE3 29.92R Brunswick FAIR 79 68 69 SE10 29.94S Saint Simons FAIR 79 71 76 SE12 29.93S 6HR MIN TEMP: 79; 6HR MAX TEMP: 85; $$ SCZ027-028-034-036>038-045-046-048>050-GAZ119-141-270100- ...Lake and Supplemental Coastal Observations... STATION/POSITION TIME TEMP WIND PRES WAVE SWELL AIR SEA DIR/SP/G HT/PER HT/PER/DIR (UTC) (F) (DEG/KT/KT) (MB) (FT/S) (FT/S/D) Winyah Bay 2245 79 200/ 14 1014.0 Lake Murray 2320 83 200/ 8/ 10 1011.9 ACE Basin NERRS 2245 80 160/ 2 1014.0 Fort Pulaski 2348 78 80 170/ 10/ 14 1014.4R Sapelo Island 2300 81 160/ 11 1013.0 $$ ANZ835-935-AMZ111-154-330-350-352-354-370-450-454-472-270100- ...C-MAN and Buoy Observations... STATION/POSITION TIME TEMP WIND PRES WAVE SWELL AIR SEA DIR/SP/G HT/PER HT/PER/DIR (UTC) (F) (DEG/KT/KT) (MB) (FT/S) (FT/S/D) Buoy 41004 2350 77 180/ 12/ 16 1014.5R 3/ 8 2/120/ 8 Buoy 41008 2350 78 78 160/ 12/ 14 1013.5R 2/ 9 2/110/ 9 Folly Beach CMAN 2300 78 180/ 14/ 15 1014.8S Capers Nearshore 2308 78 79 210/ 12/ 14 1014.9R Fripp Nearshore 2308 78 79 180/ 14/ 19 1013.5F STATION/POSITION TIME TEMP WIND PRES WAVE SWELL AIR SEA DIR/SP/G HT/PER HT/PER/DIR (UTC) (F) (DEG/KT/KT) (MB) (FT/S) (FT/S/D) 5E St. Marys GA 0000 78 N/A 3/ 4 Frying Pan Buoy 2350 78 78 190/ 14/ 16 1014.9R 3/ 9 2/120/ 9 Buoy 41025 2350 78 78 210/ 16/ 19 1015.1R 3/ 4 2/130/ 8 Cape Lookout NC 2300 210/ 10/ 13 1014.7R Buoy 41002 2350 79 170/ 12/ 16 1016.6R 3/ 8 2/130/ 8 Buoy 41010 2350 78 79 120/ 17/ 21 1014.3F 4/ 5 2/110/ 8 St Augustine FL 0000 78 81 140/ 16/ 18 1013.3F $$

USA.gov is the U.S. government's official web portal to all federal, state and local government web resources and services.